Weather in Karlova Studanka

Czech Republic     50°04′26″N   17°18′27″E
temp.,
°C
wind,
m/s
gust,
m/s
humid.,
%
clouds,
%
prec.,
mm/h
press.,
hPa
HPBL,
m
17 may, tue
tue1723:00+14ne1173100 0.1 101820
02:00+12e1195100 2.4 101829
05:00+11ne2394100 1.5 1017127
08:00+11se1194100 1.9 101724
11:00+12ne2396100 2.5 1018118
14:00+11nne3694100 5.8 1018403
17:00+11nnw2595100 0.6 1019261
20:00+10nne379467 1.1 1021379
18 may, wed
wed1823:00+7nne3794100 0.0 1024201
02:00+5nne359361 0.0 102698
05:00+4nne24915 0.0 102861
08:00+8ne247010 0.0 1029396
11:00+14ene23367 0.0 10281147
14:00+16ese33315 0.0 10271636
17:00+15ese32405 0.0 1027933
20:00+9e11645 0.0 102815
19 may, thu
thu1923:00+6ne11615 0.0 102912
02:00+5ssw115639 0.0 102913
05:00+5sw11665 0.0 102922
08:00+11ssw37669 0.0 1029418
11:00+14ssw465221 0.0 1028685
14:00+16ssw574052 0.0 1027811
17:00+16ssw5846100 0.0 1025810
20:00+12ssw3106671 0.0 1025319
20 may, fri
fri2023:00+10sw3107589 0.0 1025270
02:00+9sw3776100 0.0 1025189
05:00+8sw2480100 0.0 102595
08:00+11sw357347 0.0 1024171
11:00+18sw466383 0.0 1022461
14:00+21sw3562100 0.0 1021839
17:00+22sw356364 0.3 10191084
20:00+17ssw399276 0.5 1017337
21 may, sat
sat2123:00+15ene2298100 8.1 101764
02:00+13ssw2399100 27.0 101697
05:00+13wsw3610093 0.0 1015161
08:00+14wsw249799 0.0 1016222
11:00+17w5868100 0.2 10161099
14:00+18w6956100 0.2 10161475
17:00+17wnw5105476 0.0 10151600
20:00+13wnw25778 0.1 1016143